Location: Remedello Sotto
(45.2500°N, 10.3667°E)
Time: 10:39:48
(UTC+00:00)

Okean O Rocket - Pass Details

Date: 03 February 2023
Orbit: 620 x 643 km, 98.1° (Epoch: 30 March)

Event Time Altitude Azimuth Distance (km) Brightness Sun altitude
Rises 19:13:39 0° 192° (SSW) 2,905 5.1 -29.3°
Reaches altitude 10° 19:16:03 10° 203° (SSW) 2,007 4.3 -29.7°
Maximum altitude 19:19:52 29° 264° (W) 1,163 3.5 -30.4°
Drops below altitude 10° 19:23:45 10° 325° (NW) 2,034 4.7 -31.1°
Sets 19:26:13 0° 337° (NNW) 2,952 5.4 -31.5°
